SCP
1 2 3 3 3 4 4 3 3 2 2 2 2 3 3 4 3 3 3 2 2 2 1 1 1 1 1 1 1 1 1 1 1 1 1 1 1 1 1 1 1 1 2
2 2 3 3 3 4 4 4 3 3 2 2 2 2 3 3 3 2 2 2 2 2 1 1 1 1 1 1 1 1 1 1 1 1 1 1 1 1 1 1 1 1 2
2 3 3 3 3 3 3 3 3 3 3 2 2 2 2 2 2 2 2 2 2 2 1 1 1 1 1 0 0 0 0 0 0 0 0 0 0 1 1 1 1 1 1
3 3 3 3 3 3 2 2 2 2 2 2 2 2 2 2 2 2 2 2 2 2 2 1 1 1 1 0 0 0 0 0 0 0 0 0 0 1 1 1 1 1 1
4 3 3 3 3 2 2 2 2 2 2 2 2 2 2 2 2 2 3 3 3 3 2 2 1 1 1 1 1 1 0 0 0 0 0 0 1 1 1 1 1 1 1
3 3 3 3 3 2 2 2 2 3 3 2 2 2 2 2 2 2 3 4 5 4 3 2 2 1 1 1 1 1 1 1 0 0 0 1 1 1 1 1 1 1 2
3 3 3 3 3 3 2 2 3 3 3 3 2 2 2 3 2 2 3 4 4 5 4 2 2 2 1 1 1 1 1 1 1 0 1 1 1 2 1 1 1 1 2
3 3 3 3 3 3 3 3 3 3 3 3 3 3 3 3 3 3 3 3 4 5 4 2 2 2 1 1 1 1 1 1 1 0 1 1 1 2 2 1 1 1 2
3 3 3 2 3 3 3 3 3 3 3 3 3 3 3 4 4 4 4 3 4 5 4 3 2 2 2 2 1 1 1 1 1 1 1 1 2 3 3 2 2 2 2
3 3 2 2 2 3 3 3 3 3 3 3 3 3 4 4 4 4 4 4 5 5 5 3 3 3 2 2 2 2 2 2 1 1 1 1 3 4 4 3 2 2 2
2 2 2 2 2 2 2 2 3 3 3 3 3 3 4 4 4 5 4 4 5 5 5 4 3 3 2 2 2 2 2 2 2 2 2 2 4 5 5 3 2 2 2
2 2 2 2 2 2 2 3 3 3 3 3 3 3 3 4 4 4 4 4 4 4 4 3 3 2 2 2 2 2 2 2 2 2 2 3 5 6 6 4 3 2 2
2 2 2 3 3 3 3 4 4 4 4 3 3 4 4 4 4 3 3 3 4 4 4 4 3 2 2 2 2 3 3 3 3 3 3 3 4 5 6 5 4 3 3
2 2 3 3 3 4 5 5 5 4 4 4 4 5 4 4 4 3 3 3 3 3 3 4 3 3 2 2 2 3 3 3 3 3 3 3 3 4 5 5 4 3 3
2 3 3 3 4 6 7 7 6 5 5 5 5 5 5 5 4 3 3 3 3 3 3 3 3 3 2 2 2 2 2 2 3 3 3 3 3 4 4 4 3 2 2
3 3 3 4 5 7 9 8 7 6 6 5 6 6 6 5 4 4 4 3 3 3 3 2 2 2 2 1 1 1 1 2 2 3 3 3 4 4 3 3 2 2 2
3 3 4 4 5 7 8 8 7 6 6 6 6 6 6 5 5 5 4 4 3 3 3 3 2 2 1 1 1 1 1 2 2 2 2 3 4 4 3 3 3 2 2
4 4 4 4 5 6 7 7 6 5 5 5 6 6 5 5 5 5 5 4 4 4 4 3 2 2 1 1 1 1 1 1 1 1 2 2 3 3 3 3 3 3 3
4 4 4 4 5 6 6 5 5 5 5 5 5 5 5 4 5 5 5 5 4 4 4 3 3 2 2 1 1 1 1 1 1 1 1 2 2 2 3 3 3 3 3
4 4 4 4 5 6 6 5 5 5 5 5 5 5 5 4 4 5 5 5 5 4 4 4 4 3 3 2 1 1 1 1 1 1 1 1 1 2 2 3 4 4 4
4 4 5 5 6 7 6 5 5 5 5 5 4 4 5 5 5 5 5 5 5 5 5 5 5 4 4 3 2 1 1 1 1 1 1 1 1 1 1 2 4 4 4
4 5 6 6 6 6 6 5 5 6 6 5 4 4 5 5 5 5 5 5 5 5 5 5 6 5 4 3 2 2 1 1 1 1 1 1 1 1 1 2 3 3 3
4 4 6 7 7 6 6 6 6 6 7 6 5 5 5 5 4 4 4 4 4 4 5 6 6 5 4 4 3 2 2 1 1 1 1 1 1 2 1 1 2 2 2
4 4 5 5 6 5 6 6 6 6 7 6 6 5 5 4 4 4 4 4 4 4 5 6 6 5 5 4 4 3 2 2 1 1 1 1 1 1 1 1 2 2 2
3 3 4 5 5 4 5 5 5 6 6 6 6 6 5 5 4 3 3 3 4 4 5 6 5 5 5 5 4 4 3 2 2 1 1 1 1 1 1 2 2 2 2
2 2 3 4 5 4 4 4 5 5 5 5 6 7 6 5 4 3 3 3 4 4 5 5 5 5 5 5 5 4 3 2 2 1 1 1 1 1 1 2 2 3 3
Wind_Speed
11 16 19 15 14 13 13 13 13 14 14 14 14 14 14 13 12 11 11 10 9 8 7 7 6 5 5 4 4 3 3 2 2 2 2 3 3 3 4 4 6 7 7
13 17 18 15 14 13 13 13 14 14 14 14 14 13 13 12 12 11 10 9 8 7 7 6 5 5 4 3 3 2 2 2 1 2 3 5 5 4 4 3 4 2 6
14 17 18 15 14 14 13 13 13 14 14 14 13 13 12 12 11 10 9 8 7 6 5 5 4 4 3 2 2 1 1 1 1 2 5 7 7 6 4 4 3 2 4
15 15 16 16 15 14 13 13 13 13 13 13 13 12 12 11 11 10 9 8 7 6 5 4 4 3 2 1 1 1 1 2 2 5 8 4 3 7 5 4 4 5 5
14 14 15 16 15 14 13 13 13 13 13 13 12 12 11 11 10 9 8 7 6 5 4 4 3 3 2 2 2 2 2 3 4 9 6 4 3 6 4 5 5 6 6
14 14 16 15 14 14 13 13 12 12 12 12 11 11 10 10 9 8 7 7 6 5 4 4 3 3 3 3 3 3 3 4 9 8 4 4 4 6 4 5 6 6 7
13 12 16 14 13 13 13 12 12 12 11 11 10 10 9 9 8 7 7 6 5 5 4 4 3 3 3 3 3 4 4 5 9 6 4 5 1 4 3 6 6 7 7
13 13 14 15 14 13 12 12 11 11 10 10 10 9 8 7 7 6 6 5 5 4 4 3 3 4 4 4 4 4 4 7 8 6 5 4 2 1 4 6 7 7 7
11 11 12 13 13 13 12 11 10 10 10 10 9 8 8 7 6 5 5 4 4 4 4 4 4 4 5 5 5 5 5 7 10 5 6 4 3 2 5 6 7 7 7
9 9 9 10 10 10 11 11 10 9 9 9 9 8 7 7 7 6 6 5 4 4 5 5 5 5 5 5 6 6 7 9 9 7 5 1 3 3 5 6 6 7 7
9 8 8 9 8 8 9 10 10 9 9 8 8 8 7 6 6 6 4 3 4 4 5 5 5 6 7 7 7 7 9 7 6 5 4 2 1 4 6 7 7 7 8
9 8 8 8 8 7 6 7 6 6 7 6 5 6 5 4 3 3 5 4 4 4 5 5 6 8 10 6 7 10 7 7 6 4 2 2 3 6 7 8 8 9 9
9 8 7 7 7 7 5 5 3 3 4 5 5 5 3 3 3 3 3 4 5 6 5 5 7 6 5 4 5 5 5 6 4 4 2 3 4 6 7 8 9 9 9
8 8 7 7 7 6 5 4 4 3 3 3 4 5 4 3 3 2 2 2 3 2 3 3 3 3 5 5 6 6 6 5 4 4 2 3 5 7 8 8 8 9 9
7 8 7 7 6 5 4 3 3 3 3 3 3 4 4 3 3 2 2 2 3 2 3 3 3 3 5 5 5 6 6 6 6 6 3 5 5 6 8 8 9 9 9
7 7 7 7 6 6 5 4 3 3 3 3 3 3 4 3 2 2 3 2 3 3 2 3 3 4 4 4 5 5 6 6 5 6 6 4 7 7 8 8 9 9 9
6 6 6 7 6 6 5 5 3 3 3 2 2 3 3 3 2 3 2 3 2 2 3 4 4 4 4 5 6 6 6 6 6 6 7 6 5 8 9 8 8 9 10
5 5 5 5 6 6 4 4 3 2 3 2 2 2 3 3 3 3 3 2 2 3 3 3 4 4 4 5 5 5 5 5 7 7 7 7 6 5 7 8 7 8 9
4 4 5 5 6 6 5 4 3 3 2 2 2 2 3 3 3 4 3 2 4 4 4 4 3 4 5 5 6 5 6 6 5 7 7 7 7 7 6 5 8 9 9
4 4 5 6 6 5 5 4 3 3 3 2 2 2 3 3 4 4 3 3 4 4 4 3 4 4 5 5 7 5 6 6 6 5 7 6 6 7 7 6 6 7 10
5 4 5 5 5 5 4 4 4 3 3 3 3 3 4 4 4 5 4 3 4 4 4 5 5 5 5 4 6 5 6 6 6 5 5 5 5 6 6 6 6 5 4
4 4 4 5 5 5 4 3 2 2 2 2 2 3 4 4 5 5 4 4 4 4 5 5 5 5 5 4 5 5 5 5 5 5 4 5 5 5 6 6 5 5 5
2 3 3 4 4 4 4 3 2 2 2 2 3 3 3 4 5 5 5 5 4 5 4 5 5 6 6 5 4 5 5 5 4 4 5 5 5 5 6 6 6 6 6
3 3 3 3 4 4 5 4 4 3 3 3 2 2 3 4 5 4 5 5 5 5 5 6 5 6 7 6 4 5 6 6 6 5 4 5 6 6 6 6 6 6 7
2 3 3 3 3 3 4 4 5 4 3 2 2 2 3 3 4 5 5 4 5 5 5 5 5 6 6 6 5 5 6 5 7 7 7 5 5 5 5 6 5 6 6
1 1 2 2 2 3 3 4 4 3 3 2 3 3 3 2 3 4 4 4 5 4 4 4 5 6 5 6 6 6 6 6 6 6 8 8 7 5 5 5 6 6 6
Wind_Direction
151 144 147 153 152 148 144 142 140 140 141 141 142 143 144 143 144 144 143 141 139 137 134 129 126 124 121 121 121 119 122 129 140 153 163 164 165 172 172 181 212 199 130
145 143 148 152 151 148 144 142 140 139 140 140 141 143 144 144 144 144 144 141 139 139 137 133 129 127 123 123 122 122 130 140 159 188 201 195 174 167 178 197 257 65 130
142 142 151 152 151 148 145 143 142 142 142 143 144 145 145 145 144 143 142 140 141 143 143 140 138 136 133 131 134 145 162 177 207 225 237 229 169 160 185 202 206 182 179
142 146 152 151 152 149 146 145 144 144 145 145 146 147 147 146 145 146 146 146 147 148 149 149 150 147 147 154 179 204 219 225 232 242 234 231 198 144 186 209 211 210 205
143 147 144 151 151 149 148 148 147 147 147 148 148 149 148 148 148 151 152 153 153 154 156 158 160 163 173 193 223 240 243 240 244 246 246 236 233 134 190 217 218 217 213
146 148 141 151 150 150 149 149 149 149 150 150 149 149 149 151 152 155 157 157 160 165 168 173 178 185 201 217 227 238 244 246 249 241 244 242 225 143 195 224 223 223 218
144 143 142 147 149 150 150 151 152 151 150 149 149 149 151 153 155 159 162 164 169 176 180 189 195 208 224 235 241 241 249 255 262 258 246 245 232 115 212 234 232 228 225
142 143 139 146 149 151 152 153 153 152 150 150 150 150 152 155 160 167 171 176 182 190 200 207 214 227 238 241 244 245 250 264 253 258 254 250 103 140 245 246 242 232 229
141 143 145 151 153 154 155 155 152 150 152 152 152 152 154 159 168 179 184 188 197 212 222 228 228 236 241 241 243 246 252 264 268 254 251 253 119 206 248 251 244 236 230
140 142 147 153 156 160 158 155 153 150 150 153 156 160 165 173 179 186 197 193 211 222 231 238 238 240 242 238 239 244 249 251 253 255 251 202 128 231 250 251 245 243 238
141 144 150 152 156 162 160 149 156 157 157 163 168 170 191 201 192 190 184 173 216 231 239 245 241 243 245 229 230 241 247 251 252 261 264 68 194 249 251 250 247 246 243
149 150 153 151 154 159 156 150 167 169 161 182 178 181 199 200 211 210 142 175 204 222 228 233 240 238 244 233 212 225 242 252 258 248 223 138 248 255 256 251 247 246 244
152 154 155 154 159 161 155 157 167 167 163 182 180 189 204 211 202 211 192 183 205 220 233 215 231 243 249 256 259 247 258 263 260 258 205 166 243 254 257 255 251 246 245
158 160 160 159 162 167 162 162 168 169 169 184 178 205 204 209 214 210 225 232 231 230 243 252 251 253 262 258 261 266 259 259 263 266 215 190 243 254 256 254 252 248 245
165 167 165 168 165 168 170 177 170 179 181 179 193 197 218 218 217 212 226 245 255 259 246 253 261 262 265 261 263 264 269 270 272 271 237 189 227 249 256 259 256 252 249
168 169 168 174 172 173 175 182 181 185 181 199 197 199 215 223 222 231 223 239 255 261 276 274 272 265 267 272 267 266 269 270 267 271 271 219 210 230 246 253 255 254 253
169 172 176 177 174 181 186 190 186 191 191 197 193 203 217 228 215 240 241 241 259 263 251 255 261 260 261 261 259 258 259 264 270 269 270 271 246 218 223 238 251 253 251
166 168 178 181 175 182 183 186 194 198 191 198 198 195 205 223 228 240 245 248 259 259 255 252 256 266 268 270 267 264 263 258 259 261 262 261 267 266 226 217 240 249 249
161 172 178 185 184 182 177 182 191 186 197 205 209 206 205 220 230 241 247 253 251 256 260 267 266 276 273 275 270 257 263 260 257 256 266 266 266 266 267 221 225 238 245
153 183 186 189 187 181 176 183 189 185 193 208 217 218 224 228 232 245 242 243 257 260 265 271 275 268 272 272 273 269 262 264 260 259 262 262 261 261 260 263 247 227 226
166 188 187 195 184 183 183 191 192 191 195 206 215 213 223 235 237 241 253 243 252 256 265 269 268 259 260 269 272 269 255 245 248 252 255 265 262 262 263 258 257 262 233
174 193 192 189 183 191 186 195 205 206 216 213 220 211 227 235 242 240 246 250 248 254 249 254 258 270 267 258 275 282 272 240 224 240 246 251 263 265 258 252 253 250 263
181 196 193 192 193 193 185 183 174 186 214 208 217 220 228 237 241 247 244 252 253 254 252 253 254 260 269 263 262 274 284 288 293 236 244 253 257 259 258 256 247 246 246
201 199 198 197 196 190 191 195 201 211 222 222 227 230 237 239 241 239 247 251 256 258 258 255 257 263 265 269 259 257 271 297 287 283 252 248 252 255 259 258 254 244 243
200 197 190 188 188 191 201 201 209 222 227 222 220 222 239 237 241 246 252 260 261 262 265 271 268 263 266 272 277 272 266 264 260 274 282 280 263 255 258 260 261 256 250
161 162 170 179 185 190 201 204 212 217 220 217 218 223 233 234 245 252 258 265 266 273 272 269 267 260 266 275 278 278 275 273 269 270 276 279 280 275 269 268 263 258 253